Powrót do katalogu

STARLINK-2237

AktywnyŁącznośćVLEO
NORAD 48583·PAYLOAD·🇺🇸 United States

Wystrzelony May 15, 2021 z Cape Canaveral Space Force Station

Loading…

Następne Przeloty (najbliższe 24 godziny)

TLE

ŚwieżeSource: CelesTrak SupGP

Epoka: Sep 14, 2026, 21:06 UTC

1 48583C 21041AG  26257.87965278 -.00030318  00000+0 -97497-3 0  2572
2 48583  53.1597 348.5402 0001225  76.9406 143.3029 15.31716878    18

Śledź STARLINK-2237 w czasie rzeczywistym z AllMySat

Download on the App Store